Dewpoint
7 8 8 9 9 9 9 8 6 6 6 7 5 3 1 1 1 1 3 4 4 3 4 5 7 7 7 7 6 5 4 2
7 8 8 8 8 8 8 8 7 7 6 6 5 3 1 1 1 1 3 5 4 5 4 3 6 7 7 7 7 6 5 3
7 6 7 7 8 7 8 8 7 6 4 4 3 2 2 2 2 2 2 4 5 8 7 5 7 8 8 7 7 7 4 3
7 5 6 7 7 7 6 6 6 5 4 4 4 5 4 4 2 2 3 6 6 8 8 7 7 7 8 8 8 7 5 4
7 5 3 3 4 6 6 6 7 6 6 6 5 5 4 3 3 3 5 6 6 6 7 8 7 8 8 8 8 7 6 5
7 6 4 1 1 2 3 6 6 3 2 3 3 3 3 3 3 3 4 5 2 7 8 6 6 8 8 8 8 7 6 5
7 6 6 4 1 1 1 2 2 3 4 3 2 2 2 2 2 2 1 -2 2 5 7 6 7 7 7 7 8 7 7 6
8 7 7 7 3 2 2 2 2 3 3 4 5 4 5 5 1 3 5 4 4 5 7 8 8 7 7 7 8 8 7 6
7 6 6 6 6 5 4 2 2 1 2 4 5 5 5 4 4 6 8 6 4 7 9 9 8 7 8 7 8 9 8 7
5 5 5 5 6 6 6 7 6 4 3 3 4 4 5 6 7 8 9 7 5 6 7 7 8 8 8 7 8 9 8 8
4 5 5 4 5 5 5 6 6 5 7 6 7 7 7 7 7 7 9 7 6 8 8 8 7 6 7 9 9 8 8 8
4 4 4 4 4 5 5 6 7 8 8 8 7 7 8 8 8 9 9 8 9 8 8 7 7 6 8 9 8 8 8 8
-1 2 4 4 4 5 6 6 6 6 7 8 9 10 10 10 10 9 9 10 9 4 6 8 8 9 9 8 8 8 7 7
0 1 2 3 4 4 5 5 5 6 9 9 8 7 6 9 8 8 8 10 9 5 6 10 9 8 8 8 8 7 6 5
0 1 1 2 3 3 5 5 5 6 8 8 7 6 3 6 9 9 8 8 9 9 9 9 8 8 7 7 6 5 5 3
-1 -1 -1 2 -0 1 3 4 6 7 7 7 8 7 6 8 9 9 9 9 10 9 9 8 7 6 5 5 5 5 4 3
-4 1 -0 1 1 1 1 5 7 9 8 9 9 9 9 8 8 10 10 9 9 8 7 7 6 5 6 5 4 4 3 2
-4 0 1 3 3 2 4 6 8 9 9 10 10 10 9 10 10 9 8 8 7 6 6 5 5 5 5 4 3 2 1 0
-4 -3 0 3 4 6 7 9 10 10 10 10 10 10 10 9 9 8 8 6 4 5 5 5 5 4 3 2 -0 -1 -1 -1
Wind_Speed
9 14 16 18 18 21 31 38 40 38 41 45 44 44 39 32 34 35 23 18 17 17 17 17 20 20 19 19 19 17 19 17
11 15 18 20 22 26 35 39 41 42 44 45 46 48 42 36 39 40 21 19 20 22 20 20 24 23 21 21 23 24 24 21
17 17 20 23 25 28 34 38 39 42 42 40 43 40 39 36 44 39 26 21 25 24 22 23 28 26 27 24 25 26 24 23
26 24 24 24 28 29 31 35 36 37 38 38 33 33 36 32 44 41 32 28 27 26 27 28 30 30 30 29 28 27 26 27
33 31 28 28 29 29 32 35 35 33 37 39 37 39 42 44 40 35 35 35 31 32 32 30 32 33 31 30 28 28 27 29
42 38 34 32 30 32 34 37 38 35 36 39 39 45 45 42 39 40 36 37 38 32 31 29 33 35 35 33 31 32 32 34
46 41 36 35 36 36 39 41 42 41 38 40 46 48 46 42 40 39 36 37 37 33 30 32 32 37 35 35 34 33 33 32
49 45 44 41 43 43 43 48 47 45 45 45 46 46 44 42 41 39 37 35 36 36 36 30 33 36 35 37 37 34 31 33
49 50 47 45 45 45 46 46 47 47 47 46 45 44 44 45 44 43 41 40 37 33 36 33 29 28 33 38 36 34 29 32
50 50 49 47 46 47 48 48 47 47 49 48 46 45 47 47 45 46 44 41 34 39 30 31 27 30 31 37 38 34 33 33
49 49 50 49 47 45 47 49 50 51 51 50 49 48 47 46 46 45 40 39 40 32 30 34 36 35 34 39 38 35 35 34
45 46 49 50 48 47 48 49 51 52 51 49 50 50 50 49 49 46 43 43 39 28 34 34 38 38 38 38 35 34 34 31
36 42 43 47 49 51 49 50 51 53 52 45 42 39 39 41 42 46 44 31 26 34 41 33 33 36 34 32 32 33 32 26
21 23 32 38 38 41 47 50 54 55 47 43 40 33 31 44 40 41 36 39 38 39 34 30 25 27 28 27 27 25 21 21
26 26 26 25 25 23 26 33 38 46 49 50 48 37 34 38 37 39 43 39 38 41 31 25 23 23 22 22 21 19 20 22
29 28 24 22 20 20 21 22 27 43 45 43 46 45 34 31 36 35 32 38 33 29 27 25 21 20 20 20 20 18 19 18
30 30 26 25 22 21 21 18 22 33 40 38 36 34 34 30 28 27 26 27 26 24 22 21 21 22 20 19 18 16 16 16
30 34 33 30 27 28 25 22 21 25 26 30 27 29 28 28 29 26 25 23 22 20 20 21 21 20 20 19 17 17 15 15
29 34 34 32 31 29 24 22 23 26 26 28 31 31 30 27 25 23 22 22 19 17 18 19 20 19 17 18 18 16 15 17
Wind_Direction
203 191 189 196 194 201 198 187 185 186 180 186 189 187 187 187 185 188 187 196 209 215 222 229 220 215 222 224 224 232 243 245
204 192 194 188 194 195 190 184 188 189 190 194 193 190 196 197 194 199 198 206 220 224 227 233 220 218 231 229 229 240 238 231
200 196 199 197 193 194 192 195 198 194 199 200 197 197 204 213 196 204 215 222 229 231 241 230 222 221 231 236 238 239 231 228
197 198 200 198 194 190 190 189 188 191 193 195 201 204 202 197 199 207 214 229 227 234 238 231 228 230 230 237 242 242 232 232
199 197 201 205 199 192 190 190 190 190 193 195 201 195 193 197 201 208 224 228 231 236 239 236 232 233 235 239 246 244 235 234
204 203 202 204 199 197 193 194 196 191 190 196 200 196 203 205 213 221 226 229 235 239 236 244 239 236 237 239 240 237 234 234
211 211 205 204 201 198 197 195 195 197 197 196 200 204 210 215 221 229 232 233 232 238 243 246 246 243 240 243 240 236 241 245
206 209 207 206 204 203 202 202 203 202 205 208 210 216 220 222 224 227 231 233 234 237 239 247 244 245 249 244 245 239 246 246
210 213 214 211 209 209 209 210 214 214 215 217 218 221 224 226 230 233 237 237 241 246 241 239 246 258 257 251 248 241 249 247
217 219 220 219 215 214 215 215 219 221 223 222 221 223 226 229 232 236 242 240 241 242 240 245 254 259 263 257 247 242 248 245
218 221 223 225 226 225 222 223 224 226 224 225 226 227 229 233 239 243 246 237 240 240 252 247 263 254 250 245 235 238 242 249
217 222 227 228 229 230 232 231 230 230 230 232 234 234 236 240 243 244 245 233 232 249 257 262 260 257 253 234 238 236 242 258
228 225 226 232 230 230 232 236 236 238 236 230 230 238 241 240 242 250 253 227 228 256 256 258 255 252 237 236 243 248 254 251
189 203 219 231 233 237 238 240 243 243 227 224 226 235 258 247 247 248 247 238 232 239 254 249 238 235 244 246 245 246 247 247
191 188 188 193 206 216 227 240 247 238 231 229 228 231 248 243 247 246 246 238 245 236 240 229 233 238 235 235 238 242 244 235
212 207 203 199 209 219 223 227 231 234 235 238 237 235 235 239 240 240 235 236 226 218 222 229 226 225 232 234 235 235 239 226
219 212 214 214 219 230 240 230 218 227 230 230 232 225 228 226 223 211 204 203 211 217 222 223 226 229 228 226 229 227 217 217
229 215 216 218 220 230 231 226 216 211 214 218 221 215 210 202 192 194 202 206 209 212 214 216 219 221 220 226 219 203 198 203
231 223 214 218 219 218 221 210 200 195 196 192 188 185 184 185 190 197 203 210 210 209 207 206 208 206 202 192 184 188 194 206
Height
1489 1490 1493 1496 1497 1500 1503 1505 1508 1512 1516 1520 1526 1529 1534 1538 1540 1544 1546 1550 1553 1555 1558 1561 1562 1565 1568 1569 1571 1572 1573 1575
1490 1491 1493 1494 1497 1499 1502 1504 1507 1510 1514 1519 1522 1526 1530 1535 1538 1541 1543 1547 1550 1553 1554 1559 1560 1561 1564 1565 1567 1569 1570 1572
1488 1490 1491 1492 1493 1496 1499 1502 1506 1509 1513 1517 1522 1524 1527 1531 1535 1538 1540 1543 1548 1551 1552 1553 1555 1558 1560 1561 1563 1564 1566 1568
1485 1486 1487 1489 1491 1492 1495 1498 1502 1506 1510 1516 1519 1523 1526 1529 1530 1533 1535 1541 1544 1545 1549 1550 1552 1553 1555 1557 1558 1560 1562 1565
1480 1482 1483 1486 1489 1493 1496 1498 1502 1504 1509 1512 1515 1516 1517 1522 1526 1529 1533 1537 1538 1541 1544 1546 1548 1550 1550 1553 1554 1556 1559 1559
1473 1475 1479 1483 1487 1489 1494 1499 1503 1504 1507 1510 1513 1514 1519 1522 1525 1528 1531 1533 1535 1537 1539 1541 1543 1544 1545 1547 1548 1549 1551 1551
1464 1468 1474 1478 1484 1488 1491 1494 1497 1501 1504 1506 1509 1511 1515 1519 1522 1524 1526 1528 1530 1532 1535 1536 1538 1539 1539 1540 1542 1543 1545 1547
1461 1465 1468 1473 1477 1481 1485 1488 1491 1495 1498 1500 1502 1505 1509 1512 1515 1517 1520 1522 1523 1524 1528 1529 1531 1532 1533 1534 1535 1537 1539 1541
1453 1455 1458 1463 1468 1473 1477 1481 1486 1488 1488 1490 1495 1500 1503 1506 1508 1511 1514 1516 1519 1521 1521 1521 1525 1526 1528 1527 1528 1530 1534 1536
1445 1449 1453 1456 1461 1463 1466 1472 1475 1476 1477 1483 1486 1490 1494 1497 1500 1502 1507 1512 1514 1513 1515 1517 1519 1519 1521 1522 1522 1526 1528 1529
1440 1443 1446 1449 1453 1456 1461 1463 1463 1464 1473 1481 1484 1486 1489 1492 1495 1499 1501 1506 1508 1509 1508 1512 1511 1513 1511 1514 1516 1519 1521 1522
1433 1437 1440 1443 1447 1450 1452 1457 1460 1464 1467 1472 1474 1478 1483 1487 1489 1494 1498 1497 1498 1501 1503 1503 1504 1506 1508 1509 1511 1513 1513 1514
1428 1430 1434 1438 1441 1446 1447 1450 1454 1454 1458 1470 1475 1481 1479 1481 1484 1485 1487 1476 1494 1484 1492 1495 1496 1498 1502 1503 1504 1506 1506 1506
1425 1426 1430 1432 1435 1439 1442 1443 1443 1446 1456 1460 1464 1470 1466 1470 1471 1476 1476 1479 1477 1484 1487 1487 1488 1493 1496 1497 1497 1499 1500 1502
1422 1423 1424 1427 1431 1433 1435 1435 1436 1441 1445 1450 1454 1458 1458 1461 1464 1464 1469 1472 1478 1478 1481 1482 1484 1488 1490 1491 1492 1494 1495 1496
1418 1419 1421 1422 1424 1426 1429 1430 1431 1433 1437 1441 1446 1451 1453 1454 1455 1458 1462 1467 1470 1472 1475 1478 1479 1483 1484 1485 1487 1488 1490 1491
1412 1415 1416 1417 1419 1420 1421 1424 1427 1430 1433 1437 1440 1443 1446 1448 1451 1454 1458 1461 1465 1467 1469 1471 1474 1476 1477 1479 1481 1483 1484 1487
1406 1409 1410 1411 1414 1415 1417 1419 1421 1424 1428 1431 1433 1437 1439 1444 1448 1451 1454 1457 1460 1462 1463 1466 1469 1471 1473 1475 1476 1478 1481 1485
1398 1401 1404 1408 1410 1411 1413 1416 1419 1421 1424 1428 1432 1436 1439 1441 1445 1448 1449 1453 1454 1457 1460 1463 1465 1467 1469 1471 1473 1476 1479 1481